FW8353 Weather Reports


time (UTC)temp
C
wind
direction
speed
KPH
gust
KPH
rain 1hr
cm
rain 24hr
cm
rain mn
cm
humidity
%
barometer
mb
20260504081537 15 91 0.0 0.0 0.00 0.00 0.00 72 1008.6
20260504044556 17 243 3.2 11.3 0.00 0.00 0.00 60 1008.1
20260504043059 16 206 1.6 6.4 0.00 0.00 0.00 61 1008.3
20260504041554 17 226 0.0 4.8 0.00 0.00 0.00 59 1009.0
20260504040054 17 214 0.0 4.8 0.00 0.00 0.00 58 1009.2
20260504034554 17 250 0.0 6.4 0.00 0.00 0.00 57 1009.3
20260504033056 17 267 0.0 6.4 0.00 0.00 0.00 56 1009.5
20260504031553 18 276 1.6 11.3 0.00 0.00 0.00 54 1009.5
20260504030052 18 293 0.0 8.0 0.00 0.00 0.00 53 1009.4
20260504024553 18 289 0.0 6.4 0.00 0.00 0.00 51 1009.4
20260504023051 18 174 0.0 11.3 0.00 0.00 0.00 50 1009.4
20260504021552 19 225 1.6 11.3 0.00 0.00 0.00 49 1009.2
20260504020127 19 213 0.0 6.4 0.00 0.00 0.00 49 1009.0
20260504014600 20 272 0.0 8.0 0.00 0.00 0.00 48 1009.0
20260504013059 20 213 0.0 8.0 0.00 0.00 0.00 47 1008.9
20260504011549 20 214 0.0 6.4 0.00 0.00 0.00 46 1008.8
20260504010048 21 217 1.6 8.0 0.00 0.00 0.00 45 1008.7
20260504004617 21 221 0.0 6.4 0.00 0.00 0.00 43 1008.8
20260504003052 22 215 0.0 6.4 0.00 0.00 0.00 41 1008.8
20260504001616 22 149 0.0 6.4 0.00 0.00 0.00 40 1008.8
20260504000046 23 214 0.0 6.4 0.00 0.00 0.00 38 1008.8
20260503234543 23 178 0.0 4.8 0.00 0.00 0.00 38 1009.1
20260503233043 23 266 1.6 14.5 0.00 0.00 0.00 37 1009.2
20260503231541 24 189 1.6 17.7 0.00 0.00 0.00 35 1009.2
20260503230056 24 207 3.2 19.3 0.00 0.00 0.00 35 1009.3
20260503224537 24 224 3.2 14.5 0.00 0.00 0.00 35 1009.5
20260503223036 24 347 6.4 24.1 0.00 0.00 0.00 35 1009.7
20260503221535 24 250 4.8 20.9 0.00 0.00 0.00 34 1009.7
20260503220042 24 271 8.0 17.7 0.00 0.00 0.00 35 1009.9
20260503214532 23 280 9.7 20.9 0.00 0.00 0.00 34 1010.0
20260503213029 23 174 3.2 22.5 0.00 0.00 0.00 36 1010.1
20260503211525 23 273 3.2 17.7 0.00 0.00 0.00 36 1010.3
20260503210023 23 212 4.8 22.5 0.00 0.00 0.00 36 1010.5
20260503204520 22 119 4.8 16.1 0.00 0.00 0.00 36 1010.9
20260503203035 22 164 6.4 20.9 0.00 0.00 0.00 37 1011.3
20260503201513 22 173 6.4 17.7 0.00 0.00 0.00 37 1011.6
20260503200012 22 182 4.8 20.9 0.00 0.00 0.00 38 1011.9
20260503194510 22 219 3.2 17.7 0.00 0.00 0.00 36 1012.4
20260503193003 21 305 8.0 19.3 0.00 0.00 0.00 38 1012.8
20260503191600 21 165 8.0 17.7 0.00 0.00 0.00 36 1013.1
20260503190110 21 290 6.4 27.4 0.00 0.00 0.00 38 1013.6
20260503184552 20 154 4.8 17.7 0.00 0.00 0.00 39 1014.0
20260503183049 20 159 8.0 24.1 0.00 0.00 0.00 39 1014.5
20260503181554 20 255 6.4 27.4 0.00 0.00 0.00 41 1014.9
20260503180046 19 225 11.3 25.7 0.00 0.00 0.00 41 1015.2
20260503174539 19 269 4.8 16.1 0.00 0.00 0.00 45 1015.6
20260503173036 18 207 8.0 17.7 0.00 0.00 0.00 42 1016.0
20260503171533 18 198 3.2 19.3 0.00 0.00 0.00 46 1016.3